Location: Blackhawk
(37.8208°N, 121.9077°W)
Time: 05:47:39
(UTC+00:00)

Daily predictions for brighter satellites

Satellite Brightness Start Highest point End
(mag) Time Altitude Azimuth Time Altitude Azimuth Time Altitude Azimuth
Cosmos 1743 Rocket 3.7 03:24:42 10° S 03:29:08 89° W 03:33:38 10° N
FREGAT/IRIS 3.4 03:29:34 10° SE 03:31:52 27° ENE 03:34:09 10° NNE
ARGOS 3.2 03:28:31 10° SSE 03:33:53 75° ENE 03:39:16 10° N
Resurs 01 Rocket 3.5 03:32:59 10° E 03:35:20 14° ENE 03:37:42 10° NNE
COSMOS 2406 3.4 03:30:04 10° SSW 03:35:49 81° WNW 03:41:36 10° NNE
Cosmos 2082 Rocket 2.6 03:32:22 10° S 03:37:38 40° ESE 03:42:55 10° NE
Cosmos 2218 Rocket 4.4 03:31:34 10° SSW 03:37:42 70° W 03:43:51 10° N
USA 267 3.9 03:32:23 10° ENE 03:38:06 32° SE 03:43:47 10° S
Cosmos 1862 3.4 03:34:26 10° S 03:38:24 58° E 03:42:24 10° NNE
SJ-6B 3.3 03:35:24 10° SE 03:39:14 43° ENE 03:43:02 10° N
CZ-2C R/B 2.8 03:34:54 10° NNE 03:39:57 50° E 03:45:03 10° S
Cosmos 1500 Rocket 4.3 03:42:38 10° SSW 03:46:52 57° W 03:51:08 10° N
Ariane Rocket 3.0 03:43:16 10° SSE 03:48:18 75° ENE 03:53:22 10° N
OBJECT-B 2.0 03:48:02 12° SE 03:50:26 25° ENE 03:53:12 10° NNE
SL-08 RB Rocket 3.7 03:45:55 10° SSE 03:50:31 80° ENE 03:55:12 10° N
X-37B 2.7 03:48:33 10° WNW 03:51:13 24° N 03:53:53 10° NE
Cosmos 407 Rocket 3.5 03:48:05 10° SSW 03:53:24 78° ESE 03:58:42 10° NNE
IRIDIUM 106 4.4 03:49:26 10° SSE 03:54:33 61° E 03:59:42 10° N
Cosmos 1190 Rocket 4.0 03:49:43 10° S 03:54:55 64° ESE 04:00:10 10° NNE
MetOp-A 4.2 03:51:56 10° SSE 03:57:11 59° ENE 04:02:27 10° N
Meteor 1-4 Rocket 4.1 03:55:49 10° NNE 03:58:15 18° ENE 03:59:25 16° E
Cosmos 1666 Rocket 4.0 03:55:45 10° SSE 03:59:46 39° E 04:03:49 10° NNE
Cosmos 1812 2.8 03:56:02 10° N 03:59:49 56° E 04:03:33 10° SSE
Meteor 2-6 Rocket 4.3 03:58:43 10° N 04:04:18 82° W 04:10:02 10° S
USA 186 2.3 04:02:29 10° S 04:04:37 37° W 04:06:44 10° NNW
BREEZE-M DEB (TANK) 4.4 04:03:13 10° NW 04:05:04 18° N 04:07:48 10° NE
ATLAS 5 CENTAUR R/B 2.9 03:59:22 10° NW 04:05:20 65° WSW 04:12:08 10° SSE
Cosmos 1184 Rocket 4.1 04:04:43 20° ESE 04:05:36 22° E 04:08:15 10° NE
Cosmos 1140 Rocket 3.4 04:01:41 10° SSW 04:06:54 80° ESE 04:12:10 10° NNE
Cosmos 1934 Rocket 4.4 04:00:57 10° SSE 04:06:55 45° E 04:12:55 10° NNE
Cosmos 1818 3.6 04:02:55 10° NNW 04:08:24 82° ENE 04:12:54 15° SSE
Cosmos 1727 Rocket 4.3 04:02:33 10° N 04:08:54 73° W 04:15:12 10° S
Cosmos 1023 Rocket 4.5 04:04:15 10° SSW 04:09:30 87° ESE 04:14:49 10° NNE
Cosmos 1441 Rocket 3.7 04:05:57 10° SSW 04:09:42 62° W 04:13:26 10° N
Lacrosse 5 4.0 04:06:46 10° N 04:09:48 16° NNE 04:12:48 10° ENE
Cosmos 389 Rocket 2.5 04:07:02 10° NNW 04:10:30 77° W 04:13:57 10° S
Resurs 1-3 3.8 04:07:03 15° SE 04:10:31 51° ENE 04:14:47 10° N
Cosmos 1805 Rocket 4.0 04:06:21 10° SSW 04:10:44 67° W 04:15:11 10° N
Cosmos 1980 Rocket 3.0 04:06:41 10° N 04:11:54 36° ENE 04:15:13 19° ESE
Cosmos 220 Rocket 4.2 04:12:45 10° NNW 04:16:57 69° WSW 04:20:49 12° S
SL-4 R/B 4.5 04:14:16 10° WNW 04:17:26 21° NNW 04:20:27 10° NNE
Cosmos 1656 4.3 04:12:44 10° NNW 04:18:06 55° WSW 04:23:32 10° S
Cosmos 1833 Rocket 3.7 04:13:22 10° SW 04:18:48 50° WNW 04:24:17 10° NNE
USA 238 DEB 3.5 04:18:19 10° SSW 04:24:51 75° ESE 04:31:39 10° NE
USA 238 3.5 04:18:26 10° SSW 04:24:58 75° ESE 04:31:45 10° NE
Cosmos 1697 Rocket 2.6 04:20:01 10° NNW 04:25:38 89° NE 04:29:49 19° SSE
Cosmos 1821 Rocket 4.2 04:22:03 10° SSW 04:28:09 72° W 04:34:23 10° N
Cosmos 1633 Rocket 3.0 04:24:35 10° S 04:28:59 73° E 04:33:24 10° NNE
H-2A R/B 4.4 04:29:38 10° SW 04:33:30 21° W 04:37:18 10° NW
Shenzhou-11 Module 2.2 04:33:41 10° WNW 04:35:37 43° WSW 04:35:37 43° WSW
CENTAUR R/B 2.4 04:32:30 10° S 04:37:55 53° ESE 04:44:17 10° NE
Meteor 1-27 Rocket 3.9 04:35:13 10° N 04:41:11 80° W 04:46:07 15° S
USA 32 4.1 04:43:23 28° SSE 04:46:00 58° E 04:51:08 10° NNE
CZ-2C R/B 4.4 04:42:22 10° N 04:46:50 55° WNW 04:51:12 10° SSW
Cosmos 1707 Rocket 4.0 04:43:54 10° NNW 04:48:10 60° W 04:50:56 21° SSW
Cosmos 921 Rocket 3.5 04:45:28 10° N 04:49:24 38° ENE 04:49:43 38° E
Cosmos 2084 Rocket 3.5 04:49:21 50° ESE 04:49:25 50° ESE 04:53:32 10° NE
Cosmos 1850 Rocket 4.3 04:48:42 36° SE 04:50:06 44° ESE 04:55:06 10° NNE
Cosmos 1535 Rocket 4.5 04:46:48 10° S 04:52:56 81° W 04:59:04 10° N
Cosmos 676 Rocket 4.5 04:48:11 10° SSW 04:53:26 62° WNW 04:58:45 10° NNE
H-2A R/B 3.3 04:51:12 10° NNE 04:55:20 79° ESE 04:56:46 40° S
Cosmos 1470 Rocket 3.4 04:54:23 36° S 04:56:07 80° E 05:00:31 10° N
ERS-1 Rocket 4.1 04:56:11 25° ENE 04:56:35 26° ENE 05:00:41 10° NNE
Cosmos 2123 Rocket 3.9 04:50:31 10° N 04:56:47 90° ESE 05:00:34 26° S
Landsat 7 4.0 04:58:47 46° ESE 04:59:33 51° ENE 05:04:10 10° N
SPOT 3 Rocket 4.2 04:55:52 18° S 04:59:38 53° W 05:04:43 10° NNW
Cosmos 1605 Rocket 3.8 04:57:54 22° S 05:02:03 79° E 05:08:10 10° N
Resurs 01 Rocket 2.3 05:09:39 31° SSW 05:11:22 49° W 05:15:41 10° NNW
Cosmos 1602 3.9 05:11:59 63° NE 05:11:59 63° NE 05:15:24 10° N
MetOp-B 4.1 05:10:22 44° SSE 05:12:08 88° WSW 05:17:31 10° NNW
Genesis I 3.5 05:09:39 10° NW 05:13:28 56° WSW 05:13:30 56° WSW
Cosmos 468 Rocket 4.3 05:08:37 10° N 05:13:45 48° ENE 05:14:12 47° E
Cosmos 1862 Rocket 3.8 05:11:07 10° NNW 05:15:32 65° W 05:16:27 50° SSW
SL-16 R/B 3.0 05:11:40 10° N 05:16:52 36° ENE 05:17:29 35° ENE
NOSS 3-2 (A) 4.4 05:11:40 10° WSW 05:17:01 45° NW 05:23:05 10° NNE
Meteor 1-25 Rocket 4.4 05:14:38 21° SSW 05:18:27 70° W 05:24:04 10° N
Cosmos 192 4.5 05:13:39 10° NNW 05:18:32 69° WSW 05:19:30 54° SSW
Meteor 1-18 Rocket 4.1 05:15:27 10° N 05:20:59 64° E 05:21:35 59° ESE
USA 267 3.6 05:14:50 10° NE 05:21:19 66° NW 05:27:46 10° WSW
Cosmos 2082 Rocket 4.3 05:17:02 10° WSW 05:21:49 27° WNW 05:26:36 10° N
OBJECT-B 3.7 05:21:15 10° WSW 05:22:49 13° W 05:24:26 10° WNW
Spot 2 Rocket 3.4 05:23:48 66° SSE 05:24:33 89° WSW 05:29:41 10° NNW
NOSS 3-2 (C) 3.7 05:20:13 10° SW 05:25:44 63° NW 05:32:00 10° NNE
Cosmos 405 Rocket 3.3 05:26:28 52° WNW 05:26:28 52° WNW 05:29:50 10° N
GP-B 3.7 05:22:27 10° N 05:26:47 54° W 05:27:47 44° SW
Cosmos 1741 Rocket 3.9 05:25:44 48° SSW 05:27:15 86° WNW 05:32:34 10° NNE
Cosmos 1459 Rocket 4.4 05:27:45 45° E 05:27:45 45° E 05:33:41 10° NNE
X-37B 2.9 05:25:48 10° NW 05:27:51 22° N 05:27:51 22° N
CARTOSAT-1 4.3 05:32:50 44° NNE 05:32:50 44° NNE 05:36:07 10° N
Cosmos 1437 Rocket 4.1 05:29:13 10° N 05:31:23 31° NNE 05:31:23 31° NNE
Cosmos 2322 Rocket 2.8 05:30:46 10° N 05:36:10 42° ENE 05:36:12 42° ENE
Cosmos 1933 Rocket 4.3 05:36:20 46° WSW 05:36:57 50° W 05:41:17 10° N
Okean 1 4.3 05:42:06 10° NNW 05:45:09 45° NW 05:45:09 45° NW
Cosmos 2360 Rocket 3.5 05:42:17 10° N 05:46:53 28° NE 05:46:53 28° NE
Terra 2.7 05:50:05 41° NNE 05:50:05 41° NNE 05:53:32 10° N
Cosmos 1763 Rocket 3.5 05:47:16 10° NNW 05:52:15 77° NW 05:52:15 77° NW
Lacrosse 5 2.3 05:48:37 10° NW 05:53:02 57° N 05:53:02 57° N
USA 234 3.9 05:52:02 38° ENE 05:53:44 46° NE 05:59:53 10° NW
Cosmos 1980 Rocket 3.6 05:50:56 10° NW 05:55:43 29° WSW 05:57:00 26° SW
ATLAS 3B R/B 2.4 05:57:41 74° E 05:57:41 74° E 06:03:58 10° NE
Cosmos 1802 Rocket 4.0 06:02:11 67° ENE 06:02:11 67° ENE 06:08:03 10° NNE
Okean 1-7 4.3 06:01:24 10° NNW 06:04:15 38° NW 06:04:15 38° NW
Meteor 1-11 Rocket 4.4 06:20:18 48° NNE 06:20:18 48° NNE 06:24:26 10° NNE
Cosmos 2333 Rocket 3.9 06:18:02 10° N 06:21:53 22° NE 06:21:53 22° NE
Cosmos 44 4.4 06:17:28 10° NNW 06:20:54 45° NNW 06:20:54 45° NNW
SPOT 5 4.4 06:26:48 29° NW 06:26:48 29° NW 06:29:16 10° NNW
CENTAUR R/B 4.3 06:23:50 10° W 06:28:58 28° NW 06:34:50 10° NNE
Cosmos 540 Rocket 4.5 06:27:55 10° NNW 06:31:25 43° NNW 06:31:25 43° NNW
ERS-1 Rocket 4.5 06:36:11 30° WNW 06:36:11 30° WNW 06:39:43 10° NNW
Tsikada Rocket 4.5 06:39:51 10° N 06:44:45 54° NNE 06:44:45 54° NNE
Lacrosse 4 Rocket 4.3 07:03:31 13° N 07:03:31 13° N 07:04:07 10° NNE
SL-16 R/B 3.9 06:55:59 10° NW 06:59:20 26° WNW 06:59:20 26° WNW
Cosmos 2219 Rocket 3.6 06:57:56 10° N 07:01:30 32° NNE 07:01:30 32° NNE
Cosmos 2322 Rocket 4.2 07:15:21 10° NW 07:18:01 21° WNW 07:18:01 21° WNW
ATLAS 5 CENTAUR R/B 4.4 07:23:08 10° NW 07:24:27 26° NW 07:24:27 26° NW
Cosmos 2360 Rocket 4.0 07:25:57 10° NW 07:28:38 26° NW 07:28:38 26° NW
USA 234 4.4 07:39:23 32° WNW 07:39:23 32° WNW 07:42:59 10° NW
Cosmos 2297 Rocket 4.4 07:45:52 18° NE 07:45:52 18° NE 07:47:22 10° NE
COSMOS 2428 4.2 07:42:53 10° NNW 07:45:54 33° NNW 07:45:54 33° NNW
Cosmos 2237 Rocket 3.9 07:54:58 10° N 07:58:07 29° NNE 07:58:07 29° NNE
Cosmos 2333 Rocket 4.1 08:01:28 10° NNW 08:03:52 25° NW 08:03:52 25° NW
Cosmos 2227 Rocket 3.8 08:35:08 31° NNE 08:35:08 31° NNE 08:37:57 10° NNE
CZ-2D R/B 4.5 08:34:42 10° NE 08:36:26 16° ENE 08:36:26 16° ENE
SL-16 R/B 4.0 08:52:09 28° ENE 08:52:36 29° ENE 08:57:48 10° N
USA 229 DEB 4.3 09:13:20 46° ENE 09:13:20 46° ENE 09:18:09 10° NE
USA 229 4.3 09:13:26 46° ENE 09:13:26 46° ENE 09:18:13 10° NE
SL-16 R/B 3.5 09:08:10 10° NNW 09:11:41 37° N 09:11:41 37° N
Cosmos 2263 Rocket 4.1 09:15:55 21° ENE 09:15:55 21° ENE 09:18:38 10° NE
Resurs 1-4 Rocket 3.7 09:12:54 10° NNE 09:15:53 30° NE 09:15:53 30° NE
SJ 16-02 3.9 09:22:16 19° N 09:22:16 19° N 09:23:35 10° NNE
Cosmos 2297 Rocket 3.9 09:27:39 25° NW 09:27:39 25° NW 09:31:05 10° N
Cosmos 2344 4.5 09:26:49 10° NW 09:37:09 73° WSW 09:40:19 56° S
ADEOS II 3.4 09:48:05 10° NNE 09:52:11 34° E 09:52:11 34° E
USA 215 4.0 09:49:27 10° ENE 09:55:00 39° ESE 09:55:00 39° ESE
Cosmos 1937 Rocket 4.3 10:03:12 47° N 10:03:12 47° N 10:07:01 10° NNE
GEOS 3 Rocket 4.3 09:57:45 10° NNE 10:02:08 51° NNW 10:02:08 51° NNW
ATLAS CENTAUR R/B 3.7 10:09:10 20° ENE 10:09:10 20° ENE 10:10:49 10° NE
Cosmos 1943 4.3 10:09:11 10° N 10:14:28 41° ENE 10:17:35 22° ESE
Atlas Centaur 2 3.9 10:18:13 26° SE 10:18:13 26° SE 10:22:25 10° E
Cosmos 2227 Rocket 4.4 10:16:57 14° NW 10:17:06 14° NW 10:19:51 10° NNW
CZ-2D R/B 2.9 10:13:30 10° N 10:17:45 45° NW 10:17:45 45° NW
Cosmos 2266 Rocket 3.9 10:12:33 10° N 10:18:38 82° NW 10:18:38 82° NW
CZ-4B R/B 4.0 10:14:50 10° NNE 10:18:22 51° NNE 10:18:22 51° NNE
CBERS-1 4.3 10:17:58 10° NNE 10:22:24 65° NE 10:22:24 65° NE
NOSS 3-1 (C) 4.3 10:25:43 32° NW 10:25:54 33° NW 10:31:27 10° NNE
ARIANE 5 R/B 3.5 10:22:37 10° NNE 10:27:30 39° E 10:28:14 37° ESE
Cosmos 2150 Rocket 4.3 10:30:34 59° E 10:30:34 59° E 10:35:33 10° NNE
IRS-1C 4.4 10:27:40 10° NNE 10:32:57 60° E 10:33:17 58° ESE
NPP 4.4 10:28:26 10° N 10:32:44 41° NW 10:32:44 41° NW
ATLAS 3B CENTAUR R/B 4.1 10:17:01 10° W 10:34:58 49° SSW 10:43:17 10° SE
SL-16 R/B 3.2 10:37:15 39° WNW 10:37:15 39° WNW 10:41:52 10° NNW
Cosmos 724 4.2 10:31:50 10° NNW 10:37:54 83° WSW 10:38:24 75° S
Cosmos 1125 Rocket 3.9 10:46:53 49° SE 10:47:40 54° ESE 10:52:48 10° NNE
Cosmos 1726 3.9 10:51:42 25° NNW 10:51:42 25° NNW 10:53:25 10° N
Nadezhda 2 Rocket 4.5 10:46:08 10° N 10:52:20 77° E 10:54:58 36° SSE
Cosmos 1602 Rocket 3.8 10:50:23 10° N 10:54:04 64° N 10:54:04 64° N
IRS-1D 3.9 10:50:06 10° N 10:54:49 49° WNW 10:54:49 49° WNW
CZ-2D R/B 4.2 10:52:33 10° NNE 10:56:22 44° E 10:56:32 43° ESE
Meteor 1-16 Rocket 4.0 10:56:10 64° S 10:57:03 87° E 11:02:37 10° N
Resurs 1-4 Rocket 3.7 10:53:29 10° NNW 10:56:57 21° WNW 10:56:57 21° WNW
Cosmos 2263 Rocket 2.8 10:57:37 40° WNW 10:57:49 40° WNW 11:03:04 10° N
Cosmos 1953 3.5 11:07:06 32° NW 11:07:06 32° NW 11:09:46 10° N
Cosmos 1703 3.5 11:05:52 10° N 11:09:48 66° E 11:10:20 58° SE
IRS-P3 4.3 11:06:35 10° N 11:11:48 55° WNW 11:12:34 50° WSW
IDEFIX/ARIANE 42P 2.7 11:07:34 10° NNE 11:12:46 69° ESE 11:14:54 36° S
Cosmos 2228 3.2 11:14:55 47° SSE 11:16:03 69° E 11:20:25 10° NNE
Meteor 1-21 Rocket 4.2 11:10:43 10° NNW 11:16:08 57° W 11:17:08 49° SW
Cosmos 1328 3.9 11:14:32 10° N 11:18:32 71° E 11:19:41 44° SSE
Cosmos 1844 Rocket 2.9 11:18:55 32° S 11:21:29 63° ESE 11:27:00 10° NNE
BREEZE-M DEB (TANK) 3.6 11:22:03 49° WSW 11:23:20 87° NW 11:36:28 10° NE
Meteor 2-8 Rocket 4.4 11:21:07 31° S 11:24:14 86° W 11:30:23 10° N
Cosmos 1417 Rocket 4.4 11:21:14 29° S 11:24:40 87° W 11:30:57 10° N
ADEOS II 3.2 11:28:03 10° NNW 11:32:22 26° WNW 11:33:07 26° W
Meteor 2-16 Rocket 4.5 11:28:06 10° NNW 11:34:09 60° W 11:37:57 23° SSW
Cosmos 1048 Rocket 3.8 11:29:12 10° NNW 11:34:21 73° WSW 11:39:32 10° S
OAO 1 Rocket 4.5 11:32:47 41° WSW 11:34:31 63° S 11:39:50 10° E
OAO 2 Rocket 3.6 11:36:11 38° SW 11:37:53 55° S 11:43:01 10° E
Cosmos 1603 4.4 11:33:05 10° NW 11:38:04 32° WSW 11:38:11 32° WSW
USA 215 3.6 11:32:15 10° NE 11:38:37 55° NW 11:42:21 25° WSW
Hubble Space Telescope 2.5 11:39:34 19° SSE 11:39:34 19° SSE 11:42:22 10° SE
Cosmos 1356 Rocket 3.3 11:42:16 36° SSW 11:43:52 75° W 11:48:01 10° N
Spot 4 Rocket 4.2 11:39:33 10° N 11:44:35 55° WNW 11:46:57 30° SW
Cosmos 1386 Rocket 4.4 11:39:53 10° N 11:45:55 85° E 11:51:56 10° S
ATLAS CENTAUR R/B 2.8 11:45:21 22° WNW 11:46:08 24° NW 11:49:23 10° N
Cosmos 1758 Rocket 3.8 11:42:30 10° NNW 11:46:39 46° W 11:48:01 34° SW
Centaur AC-72 4.4 11:47:18 15° SSW 11:48:18 15° S 11:52:25 10° SE
Cosmos 2058 Rocket 3.2 11:46:02 18° S 11:49:21 78° E 11:53:49 10° N
CSL-04 DEB 4.2 11:48:52 13° S 11:52:22 74° WSW 11:56:19 10° NNW
OAO 3 Rocket 3.4 11:50:49 29° WSW 11:53:06 54° S 11:57:55 10° ESE
H-2A R/B 1.8 11:50:22 10° SSE 11:54:29 85° W 11:58:35 10° NNW
Delta 2 Rocket 3.0 11:54:39 39° WSW 11:55:38 57° S 11:59:19 10° ESE
